Weather History for KPPF - October, 2012

Change the Weather History Date:

Thursday, October 4, 2012

  Actual Average Record
Temperature  
Mean Temperature 62 °F -  
Max Temperature 73 °F 77 °F 95 °F (1963)
Min Temperature 50 °F 52 °F 34 °F (2014)
Degree Days  
Heating Degree Days 3    
Growing Degree Days 12 (Base 50)    
Moisture  
Dew Point 50 °F    
Average Humidity 67    
Maximum Humidity 90    
Minimum Humidity 49    
Precipitation  
Precipitation 0.01 in - - ()
Sea Level Pressure  
Sea Level Pressure 30.13 in    
Wind  
Wind Speed 6 mph (NNW)    
Max Wind Speed 14 mph    
Max Gust Speed 17 mph    
Visibility 10 miles    
Events      
Averages and records for this station are not official NWS values.
T = Trace of Precipitation, MM = Missing Value Source: NWS Daily Summary

Daily Weather History Graph

Daily Weather History Graph

Search for Another Location

Airport or City:

Trip Planner

Search our weather history database for the weather conditions in past years. The results will help you decide how hot, cold, wet, or windy it might be!

Date:

Astronomy

Oct. 04, 2012 Rise Set
Actual Time 7:20 AM CDT 6:59 PM CDT
Civil Twilight 6:54 AM CDT 7:25 PM CDT
Nautical Twilight 6:24 AM CDT 7:56 PM CDT
Astronomical Twilight 5:53 AM CDT 8:26 PM CDT
Moon 9:42 PM CDT (10/4) 11:32 AM CDT (10/4)
Length of Visible Light 12h 31m
Length of Day
11h 39m
Waning Gibbous, 82% of the Moon is Illuminated
Oct 4
Waning Gibbous
Oct 8
Last Quarter
Oct 15
New
Oct 21
First Quarter
Oct 29
Full

Hourly Weather History & Observations

Time (CDT) Temp. Dew Point Humidity Pressure Visibility Wind Dir Wind Speed Gust Speed Precip Events Conditions
12:52 AM 64.0 °F 52.0 °F 65% 29.99 in 10.0 mi South 5.8 mph - N/A   Clear
1:52 AM 63.0 °F 52.0 °F 67% 30.00 in 10.0 mi South 5.8 mph - N/A   Clear
2:52 AM 61.0 °F 52.0 °F 72% 30.02 in 10.0 mi Calm Calm - N/A   Clear
3:52 AM 55.0 °F 51.1 °F 86% 30.04 in 10.0 mi Calm Calm - N/A   Clear
4:52 AM 54.0 °F 51.1 °F 90% 30.06 in 10.0 mi Calm Calm - N/A   Clear
5:52 AM 55.9 °F 51.1 °F 84% 30.08 in 10.0 mi Calm Calm - N/A   Clear
6:52 AM 57.9 °F 52.0 °F 81% 30.09 in 10.0 mi Calm Calm - N/A   Clear
7:52 AM 55.0 °F 52.0 °F 89% 30.13 in 8.0 mi NW 3.5 mph - N/A   Clear
8:52 AM 63.0 °F 54.0 °F 72% 30.14 in 10.0 mi SSW 4.6 mph - N/A   Clear
9:52 AM 69.1 °F 55.0 °F 61% 30.14 in 10.0 mi South 9.2 mph 17.3 mph N/A   Clear
10:52 AM 73.0 °F 55.0 °F 53% 30.15 in 10.0 mi WSW 10.4 mph 17.3 mph N/A   Scattered Clouds
11:52 AM 70.0 °F 54.0 °F 57% 30.17 in 10.0 mi NW 11.5 mph - N/A   Mostly Cloudy
12:52 PM 68.0 °F 50.0 °F 52% 30.18 in 10.0 mi NNW 12.7 mph - N/A   Overcast
1:52 PM 69.1 °F 48.9 °F 49% 30.17 in 10.0 mi NNW 13.8 mph - N/A   Overcast
2:52 PM 68.0 °F 48.9 °F 50% 30.17 in 10.0 mi North 11.5 mph - N/A   Overcast
3:52 PM 64.9 °F 48.0 °F 54% 30.17 in 10.0 mi North 10.4 mph - N/A   Overcast
5:52 PM 62.1 °F 46.0 °F 56% 30.17 in 10.0 mi North 10.4 mph 17.3 mph N/A   Overcast
6:52 PM 59.0 °F 46.0 °F 62% 30.18 in 10.0 mi North 9.2 mph - N/A   Overcast
7:52 PM 55.0 °F 41.0 °F 59% 30.21 in 10.0 mi North 11.5 mph - N/A   Overcast
10:52 PM 51.1 °F 42.1 °F 71% 30.22 in 10.0 mi NNE 5.8 mph - 0.00 in   Overcast
11:52 PM 50.0 °F 44.1 °F 80% 30.21 in 10.0 mi NNE 6.9 mph - 0.01 in   Overcast